Location: Newark
(40.9833°N, 0.0333°W)
Time: 00:50:07
(UTC+00:00)

Altair - Pass Details

Date: 05 November 2020
Orbit: 1502 x 1682 km, 47.2° (Epoch: 02 December)

Event Time Altitude Azimuth Distance (km) Brightness Sun altitude
Rises 06:40:03 0° 286° (WNW) 4,666 - -0.1°
Exits shadow 06:40:05 - 286° (WNW) 4,659 9.3 -0.1°
Reaches altitude 10° 06:43:07 10° 290° (WNW) 3,700 8.9 0.4°
Maximum altitude 06:52:25 64° 11° (N) 1,712 7.8 2.0°
Drops below altitude 10° 07:02:05 10° 92° (E) 3,834 11.1 3.7°
Sets 07:05:18 0° 96° (E) 4,843 11.8 4.2°
